This is the latest recevied weather packets stored in our database for station/object K5OBH. If no packets are shown the sender has not sent any weather packets the latest 10 day(s).
| Time | Temp. | Humidity | Pressure | Rain* | Wind** | Luminosity | Snow |
|---|---|---|---|---|---|---|---|
| 1777645412 | 15° C | 71% | 1018.6 hPa | 0 mm | - | 312 W/m² | - |
| 1777645107 | 14.44° C | 71% | 1018.6 hPa | 0 mm | - | 281 W/m² | - |
| 1777644804 | 14.44° C | 72% | 1018.6 hPa | 0 mm | - | 256 W/m² | - |
| 1777644502 | 13.89° C | 73% | 1018.3 hPa | 0 mm | - | 223 W/m² | - |
| 1777644198 | 13.89° C | 73% | 1018.4 hPa | 0 mm | - | 197 W/m² | - |
| 1777643894 | 12.78° C | 75% | 1018.2 hPa | 0 mm | - | 178 W/m² | - |
| 1777643593 | 13.33° C | 75% | 1018.3 hPa | 0 mm | - | 64 W/m² | - |
| 1777643289 | 12.78° C | 76% | 1017.9 hPa | 0 mm | - | 72 W/m² | - |
| 1777642985 | 13.33° C | 75% | 1018.1 hPa | 0 mm | - | 91 W/m² | - |
| 1777642682 | 12.78° C | 75% | 1018.3 hPa | 0 mm | - | 104 W/m² | - |
| 1777642379 | 12.78° C | 76% | 1018.3 hPa | 0 mm | - | 137 W/m² | - |
| 1777642075 | 13.33° C | 75% | 1018 hPa | 0 mm | - | 141 W/m² | - |
| 1777641772 | 12.78° C | 77% | 1018 hPa | 0 mm | - | 185 W/m² | - |
| 1777641472 | 12.78° C | 77% | 1018.2 hPa | 0 mm | - | 162 W/m² | - |
| 1777641167 | 12.22° C | 78% | 1017.8 hPa | 0 mm | - | 138 W/m² | - |
| 1777640863 | 11.67° C | 79% | 1018.1 hPa | 0 mm | - | 123 W/m² | - |
| 1777640561 | 11.11° C | 80% | 1018 hPa | 0 mm | - | 92 W/m² | - |
| 1777640257 | 10.56° C | 81% | 1018 hPa | 0 mm | - | 90 W/m² | - |
| 1777639954 | 10.56° C | 81% | 1017.9 hPa | 0 mm | - | 70 W/m² | - |
| 1777639651 | 10.56° C | 81% | 1017.9 hPa | 0 mm | - | 58 W/m² | - |
| 1777639349 | 10° C | 82% | 1017.8 hPa | 0 mm | - | 50 W/m² | - |
| 1777639044 | 10° C | 82% | 1017.9 hPa | 0 mm | - | 38 W/m² | - |
| 1777638741 | 10° C | 82% | 1017.7 hPa | 0 mm | - | 34 W/m² | - |
| 1777638436 | 9.44° C | 83% | 1018 hPa | 0 mm | - | 33 W/m² | - |
| 1777638134 | 9.44° C | 82% | 1017.8 hPa | 0 mm | - | 20 W/m² | - |
* Rain latest hour (hover to see other rain measurements)
** Current wind speed in m/s (hover to see current wind gust speed)